Location: Ahausen
(50.4985°N, 8.2722°E)
Time: 07:35:52
(UTC+00:00)

Spot 2 Rocket - Pass Details

Date: 18 September 2020
Orbit: 758 x 772 km, 98.6° (Epoch: 22 October)

Event Time Altitude Azimuth Distance (km) Brightness Sun altitude
Exits shadow 19:48:07 41° 84° (E) 1,095 3.9 -21.2°
Maximum altitude 19:48:41 43° 66° (ENE) 1,067 3.9 -21.3°
Drops below altitude 10° 19:53:26 10° 356° (N) 2,300 6.4 -21.9°
Sets 19:55:50 0° 350° (N) 3,230 7.4 -22.3°
